Location: Godiavel Galaoual
(15.2485°N, 12.6604°W)
Time: 21:48:46
(UTC+00:00)

BEESAT - Pass Details

Date: 04 August 2021
Orbit: 699 x 708 km, 98.6° (Epoch: 25 September)

Event Time Altitude Azimuth Distance (km) Brightness Sun altitude
Rises 20:15:40 0° 5° (N) 3,095 ? -13.6°
Reaches altitude 10° 20:17:58 10° 1° (N) 2,175 ? -14.1°
Maximum altitude 20:22:36 55° 284° (WNW) 842 ? -15.1°
Drops below altitude 10° 20:27:15 10° 206° (SSW) 2,169 ? -16.1°
Sets 20:29:33 0° 202° (SSW) 3,085 ? -16.7°
